When you browse on this site, cookies collect data to enhance your experience and personalize the content and advertising you see.
Visit our Privacy Policy to learn more. By continuing to use the site, you agree to this use of cookies and data.
  • Em Portugal
  • Lista de países
  • Para 7 dias
  • Temperatura da água
  • Mapas de satélite
  • Mapa do tempo
  • Widgets de tempo
  • user-avatar
    Iniciar Sessão

    Previsão horária em Kushnikovo

    Hoje, 19 Julho, Sexta-feira

    Tempo Temperatura Precipitação Vento Pressão Humidade
    00:00 +11°C° 0 mm 1 m/s 732 mmHg 97%
    01:00 +11°C° 0 mm 1 m/s 732 mmHg 97%
    02:00 +11°C° 0 mm 1 m/s 732 mmHg 97%
    03:00 +11°C° 0 mm 1 m/s 733 mmHg 97%
    04:00 +11°C° 0 mm 1 m/s 733 mmHg 97%
    05:00 +12°C° 0 mm 1 m/s 733 mmHg 97%
    06:00 +13°C° 0.1 mm 1 m/s 733 mmHg 94%
    07:00 +15°C° 0.1 mm 1 m/s 733 mmHg 90%
    08:00 +16°C° 0 mm 1 m/s 733 mmHg 87%
    09:00 +18°C° 0.7 mm 1 m/s 733 mmHg 86%
    10:00 +18°C° 0.7 mm 2 m/s 733 mmHg 84%
    11:00 +18°C° 0.7 mm 2 m/s 733 mmHg 83%
    12:00 +19°C° 1 mm 2 m/s 733 mmHg 81%
    13:00 +20°C° 1 mm 2 m/s 733 mmHg 78%
    14:00 +19°C° 0 mm 2 m/s 734 mmHg 81%
    15:00 +19°C° 0.8 mm 2 m/s 734 mmHg 84%
    16:00 +19°C° 0.8 mm 2 m/s 734 mmHg 86%
    17:00 +19°C° 0.8 mm 2 m/s 734 mmHg 89%
    18:00 +17°C° 0.8 mm 2 m/s 734 mmHg 91%
    19:00 +16°C° 0.8 mm 2 m/s 734 mmHg 93%
    20:00 +15°C° 0.8 mm 2 m/s 734 mmHg 95%
    21:00 +15°C° 0.1 mm 2 m/s 734 mmHg 96%
    22:00 +13°C° 0.1 mm 3 m/s 734 mmHg 96%
    23:00 +13°C° 0.1 mm 3 m/s 734 mmHg 97%

    Amanhã, 20 Julho, Sábado

    Tempo Temperatura Precipitação Vento Pressão Humidade
    00:00 +13°C° 0 mm 3 m/s 735 mmHg 97%
    01:00 +13°C° 0 mm 3 m/s 735 mmHg 97%
    02:00 +13°C° 0 mm 3 m/s 735 mmHg 98%
    03:00 +14°C° 0.3 mm 3 m/s 735 mmHg 97%
    04:00 +14°C° 0.3 mm 3 m/s 736 mmHg 97%
    05:00 +14°C° 0.3 mm 3 m/s 736 mmHg 97%
    06:00 +16°C° 0 mm 3 m/s 736 mmHg 94%
    07:00 +16°C° 0 mm 3 m/s 737 mmHg 91%
    08:00 +17°C° 0 mm 3 m/s 737 mmHg 89%
    09:00 +17°C° 0.2 mm 3 m/s 737 mmHg 85%
    10:00 +18°C° 0.2 mm 3 m/s 738 mmHg 81%
    11:00 +19°C° 0.2 mm 3 m/s 739 mmHg 77%
    12:00 +19°C° 0.8 mm 3 m/s 739 mmHg 78%
    13:00 +19°C° 0.8 mm 3 m/s 739 mmHg 80%
    14:00 +20°C° 0.8 mm 3 m/s 739 mmHg 82%
    15:00 +19°C° 1 mm 3 m/s 739 mmHg 85%
    16:00 +19°C° 1 mm 3 m/s 739 mmHg 89%
    17:00 +19°C° 1 mm 3 m/s 739 mmHg 92%
    18:00 +18°C° 0.3 mm 3 m/s 740 mmHg 93%
    19:00 +17°C° 0.3 mm 3 m/s 740 mmHg 95%
    20:00 +16°C° 0.3 mm 3 m/s 740 mmHg 97%
    21:00 +16°C° 0 mm 3 m/s 740 mmHg 97%
    22:00 +14°C° 0 mm 3 m/s 740 mmHg 97%
    23:00 +14°C° 0 mm 3 m/s 740 mmHg 98%

    Depois de amanhã, 21 Julho, Domingo

    Tempo Temperatura Precipitação Vento Pressão Humidade
    00:00 +14°C° 0 mm 2 m/s 741 mmHg 98%
    01:00 +14°C° 0 mm 2 m/s 741 mmHg 98%
    02:00 +13°C° 0 mm 2 m/s 741 mmHg 98%
    03:00 +14°C° 0 mm 2 m/s 741 mmHg 98%
    04:00 +14°C° 0 mm 2 m/s 741 mmHg 98%
    05:00 +13°C° 0 mm 3 m/s 741 mmHg 98%
    06:00 +14°C° 0 mm 3 m/s 742 mmHg 94%
    07:00 +16°C° 0 mm 3 m/s 742 mmHg 90%
    08:00 +18°C° 0 mm 3 m/s 742 mmHg 86%
    09:00 +19°C° 0.2 mm 3 m/s 742 mmHg 82%
    10:00 +20°C° 0.2 mm 3 m/s 742 mmHg 77%
    11:00 +21°C° 0.2 mm 3 m/s 742 mmHg 72%
    12:00 +21°C° 0.8 mm 2 m/s 742 mmHg 71%
    13:00 +23°C° 0.8 mm 2 m/s 742 mmHg 71%
    14:00 +23°C° 0.8 mm 2 m/s 742 mmHg 70%
    15:00 +23°C° 0.5 mm 2 m/s 742 mmHg 72%
    16:00 +23°C° 0.5 mm 2 m/s 742 mmHg 75%
    17:00 +23°C° 0.5 mm 2 m/s 742 mmHg 77%
    18:00 +20°C° 0.2 mm 2 m/s 742 mmHg 82%
    19:00 +18°C° 0.2 mm 2 m/s 742 mmHg 86%
    20:00 +18°C° 0.2 mm 1 m/s 742 mmHg 90%
    21:00 +16°C° 0 mm 1 m/s 742 mmHg 91%
    22:00 +15°C° 0 mm 1 m/s 742 mmHg 92%
    23:00 +14°C° 0 mm 1 m/s 742 mmHg 93%

    22 Julho, Segunda-feira

    Tempo Temperatura Precipitação Vento Pressão Humidade
    00:00 +14°C° 0 mm 1 m/s 742 mmHg 93%
    01:00 +13°C° 0 mm 1 m/s 742 mmHg 93%
    02:00 +13°C° 0 mm 1 m/s 742 mmHg 94%
    03:00 +13°C° 0 mm 1 m/s 742 mmHg 93%
    04:00 +13°C° 0 mm 1 m/s 742 mmHg 92%
    05:00 +14°C° 0 mm 1 m/s 742 mmHg 91%
    06:00 +16°C° 0 mm 1 m/s 742 mmHg 82%
    07:00 +19°C° 0 mm 1 m/s 742 mmHg 74%
    08:00 +21°C° 0 mm 1 m/s 742 mmHg 66%
    09:00 +23°C° 0 mm 1 m/s 742 mmHg 60%
    10:00 +22°C° 0 mm 0 m/s 742 mmHg 53%
    11:00 +24°C° 0 mm 0 m/s 742 mmHg 47%
    12:00 +24°C° 0 mm 0 m/s 742 mmHg 46%
    13:00 +24°C° 0 mm 0 m/s 741 mmHg 46%
    14:00 +25°C° 0 mm 0 m/s 741 mmHg 45%
    15:00 +24°C° 0 mm 0 m/s 741 mmHg 49%
    16:00 +25°C° 0 mm 1 m/s 741 mmHg 52%
    17:00 +25°C° 0 mm 1 m/s 741 mmHg 55%
    18:00 +23°C° 0 mm 1 m/s 740 mmHg 64%
    19:00 +21°C° 0 mm 1 m/s 740 mmHg 73%
    20:00 +18°C° 0 mm 1 m/s 740 mmHg 81%
    21:00 +18°C° 0 mm 1 m/s 740 mmHg 84%
    22:00 +16°C° 0 mm 2 m/s 740 mmHg 86%
    23:00 +15°C° 0 mm 2 m/s 740 mmHg 89%

    23 Julho, Terça-feira

    Tempo Temperatura Precipitação Vento Pressão Humidade
    00:00 +15°C° 0 mm 2 m/s 740 mmHg 91%
    01:00 +14°C° 0 mm 2 m/s 740 mmHg 94%
    02:00 +14°C° 0 mm 1 m/s 739 mmHg 96%
    03:00 +14°C° 0 mm 2 m/s 739 mmHg 95%
    04:00 +14°C° 0 mm 2 m/s 739 mmHg 94%
    05:00 +15°C° 0 mm 2 m/s 739 mmHg 93%
    06:00 +16°C° 0 mm 2 m/s 739 mmHg 85%
    07:00 +18°C° 0 mm 2 m/s 739 mmHg 77%
    08:00 +20°C° 0 mm 2 m/s 739 mmHg 69%
    09:00 +21°C° 0 mm 2 m/s 739 mmHg 63%
    10:00 +23°C° 0 mm 2 m/s 739 mmHg 58%
    11:00 +24°C° 0 mm 2 m/s 739 mmHg 52%
    12:00 +24°C° 0 mm 2 m/s 739 mmHg 51%
    13:00 +25°C° 0 mm 2 m/s 739 mmHg 49%
    14:00 +25°C° 0 mm 2 m/s 739 mmHg 48%
    15:00 +25°C° 0 mm 2 m/s 739 mmHg 51%
    16:00 +24°C° 0 mm 2 m/s 739 mmHg 54%
    17:00 +24°C° 0 mm 2 m/s 739 mmHg 57%
    18:00 +21°C° 0 mm 2 m/s 739 mmHg 64%
    19:00 +19°C° 0 mm 2 m/s 739 mmHg 72%
    20:00 +17°C° 0 mm 2 m/s 739 mmHg 79%
    21:00 +16°C° 0 mm 1 m/s 739 mmHg 82%
    22:00 +15°C° 0 mm 1 m/s 739 mmHg 85%
    23:00 +14°C° 0 mm 1 m/s 739 mmHg 88%

    24 Julho, Quarta-feira

    Tempo Temperatura Precipitação Vento Pressão Humidade
    00:00 +14°C° 0 mm 1 m/s 739 mmHg 88%
    01:00 +13°C° 0 mm 1 m/s 739 mmHg 88%
    02:00 +13°C° 0 mm 1 m/s 739 mmHg 88%
    03:00 +14°C° 0 mm 1 m/s 739 mmHg 86%
    04:00 +14°C° 0 mm 1 m/s 739 mmHg 84%
    05:00 +15°C° 0 mm 1 m/s 739 mmHg 82%
    06:00 +18°C° 0 mm 1 m/s 739 mmHg 77%
    07:00 +19°C° 0 mm 1 m/s 739 mmHg 71%
    08:00 +21°C° 0 mm 1 m/s 739 mmHg 66%
    09:00 +22°C° 0.4 mm 1 m/s 739 mmHg 66%
    10:00 +21°C° 0.4 mm 2 m/s 739 mmHg 66%
    11:00 +23°C° 0.4 mm 2 m/s 739 mmHg 66%
    12:00 +24°C° 0.3 mm 2 m/s 739 mmHg 60%
    13:00 +24°C° 0.3 mm 2 m/s 739 mmHg 53%
    14:00 +25°C° 0.3 mm 3 m/s 739 mmHg 47%
    15:00 +25°C° 0 mm 2 m/s 739 mmHg 49%
    16:00 +24°C° 0 mm 2 m/s 739 mmHg 52%
    17:00 +24°C° 0 mm 2 m/s 739 mmHg 54%
    18:00 +21°C° 0 mm 2 m/s 739 mmHg 61%
    19:00 +19°C° 0 mm 2 m/s 739 mmHg 69%
    20:00 +17°C° 0 mm 2 m/s 739 mmHg 76%
    21:00 +16°C° 0 mm 2 m/s 739 mmHg 77%
    22:00 +16°C° 0 mm 2 m/s 739 mmHg 77%
    23:00 +15°C° 0 mm 1 m/s 739 mmHg 78%
    Mostrar mais